Vorticity
nan nan nan nan nan nan nan nan nan nan nan nan nan nan nan nan nan nan nan nan nan nan nan nan nan nan nan nan nan nan nan nan nan nan nan nan nan nan nan nan nan nan nan
nan 7 6 6 7 6 6 6 6 6 7 6 6 7 6 6 5 6 5 5 6 5 6 6 5 5 4 4 4 4 5 5 5 4 5 7 7 7 7 6 9 8 nan
nan 7 7 7 6 7 7 7 7 7 6 6 6 6 6 6 7 6 5 5 4 5 4 4 7 7 6 5 4 5 4 5 5 6 7 8 6 8 7 5 6 7 nan
nan 7 7 6 7 7 7 6 5 6 6 6 5 5 6 7 7 6 6 5 5 5 5 5 5 4 6 6 5 5 5 5 5 7 7 6 7 10 9 6 5 5 nan
nan 6 6 7 7 6 5 6 6 5 6 6 7 6 6 6 6 6 6 7 7 6 5 5 5 5 5 5 5 5 5 5 6 8 7 6 8 12 10 6 6 6 nan
nan 6 6 6 5 5 6 6 6 6 5 6 8 8 8 8 8 8 7 7 7 7 8 8 6 5 4 5 5 5 5 5 7 8 6 6 8 11 8 6 6 6 nan
nan 4 5 6 6 5 6 5 5 5 5 6 6 8 9 7 9 12 10 8 8 7 7 8 8 7 6 5 5 6 6 7 8 6 6 6 7 10 9 6 6 6 nan
nan 5 7 6 5 5 5 4 5 5 5 6 6 7 7 7 7 8 8 8 11 12 11 11 12 12 9 8 7 7 7 7 8 8 7 6 5 12 11 6 5 5 nan
nan 6 6 5 5 4 3 5 6 5 6 7 7 7 6 5 5 5 5 8 10 10 10 10 10 13 13 12 12 10 7 7 9 7 7 6 4 12 12 7 6 5 nan
nan 6 5 5 5 5 6 7 5 5 6 7 5 6 3 2 2 3 7 8 6 5 6 6 6 7 9 10 13 12 11 11 10 9 9 5 5 7 11 9 6 6 nan
nan 6 6 6 6 6 7 4 4 3 2 2 2 3 5 4 3 3 5 5 5 6 6 6 7 8 8 5 5 9 14 13 9 10 8 5 8 9 10 10 8 7 nan
nan 6 7 8 7 6 6 5 3 1 2 3 5 3 5 7 6 4 -0 1 3 5 4 5 5 6 10 9 4 7 8 7 9 9 8 7 10 11 14 12 8 7 nan
nan 6 8 8 8 7 6 5 6 6 7 6 6 7 7 6 6 6 4 3 1 3 6 3 5 4 6 8 8 6 7 8 8 7 4 5 10 12 18 16 10 8 nan
nan 7 7 7 6 5 7 8 8 7 7 7 6 7 8 7 7 8 7 7 8 5 7 7 6 6 6 7 7 7 8 8 8 6 2 2 6 9 13 20 22 8 nan
nan 6 7 7 7 7 7 7 8 7 7 7 6 7 8 8 8 8 7 8 7 7 7 8 7 6 6 7 7 7 7 8 8 8 3 3 4 6 9 10 26 26 nan
nan 7 7 6 7 8 7 8 7 7 7 7 7 7 8 9 8 8 7 7 7 8 8 8 7 7 8 7 7 8 7 7 8 8 7 5 5 7 7 10 14 26 nan
nan 6 6 7 7 7 8 8 8 7 7 7 6 7 8 9 9 8 7 7 7 7 8 8 8 8 7 8 7 8 8 8 8 9 10 9 8 7 8 10 14 17 nan
nan 7 7 7 8 7 6 6 8 8 7 7 8 7 7 8 8 8 7 7 8 9 9 7 7 8 8 8 9 9 8 8 9 9 10 11 10 8 4 4 9 13 nan
nan 7 7 7 7 6 7 9 9 7 7 7 7 7 8 7 8 8 7 7 8 8 8 8 8 7 7 7 9 10 8 8 9 9 7 8 9 9 4 -2 4 5 nan
nan 8 5 7 7 6 5 6 7 7 7 8 8 9 8 7 8 7 7 8 8 9 8 9 7 8 7 8 11 10 10 11 8 5 8 6 7 9 6 7 8 1 nan
nan 8 8 7 6 5 7 7 7 8 7 8 8 8 8 8 7 9 9 8 8 7 8 9 8 7 6 12 15 9 10 10 3 3 11 5 4 7 7 9 9 8 nan
nan 5 8 8 8 6 8 9 10 8 8 8 6 8 8 8 8 9 8 8 9 7 7 7 9 11 7 9 15 10 7 7 3 7 8 5 6 6 6 7 10 8 nan
nan 8 8 8 9 8 9 9 9 8 8 7 8 8 7 8 9 8 9 9 8 8 8 8 7 9 10 8 11 13 9 5 9 9 2 4 8 7 7 7 7 6 nan
nan 8 9 9 9 10 10 11 9 8 8 8 9 8 8 8 8 8 8 8 9 9 7 9 8 9 8 9 9 8 10 8 8 7 3 3 5 6 9 9 6 10 nan
nan 8 7 9 8 10 11 10 9 11 9 10 9 9 6 6 7 8 9 9 8 9 8 8 8 9 11 9 9 8 9 11 8 8 2 6 8 9 6 6 10 9 nan
nan nan nan nan nan nan nan nan nan nan nan nan nan nan nan nan nan nan nan nan nan nan nan nan nan nan nan nan nan nan nan nan nan nan nan nan nan nan nan nan nan nan nan
CAPE
1268 1334 1433 1647 1606 1569 1607 1734 1853 1983 2149 2244 2204 2145 2106 2115 2075 2098 2079 2171 2346 1964 1787 1419 1284 1410 1467 1181 956 1098 1200 1107 1055 995 913 902 1056 1032 484 383 388 548 615
1357 1485 1546 1742 1802 1782 1838 1861 1915 2025 2151 2040 2165 2196 2176 2175 2169 2151 2082 2113 2139 1871 1938 1776 1641 1565 1613 1534 1111 983 1002 1005 985 997 897 855 741 995 553 589 601 585 769
1343 1478 1545 1576 1798 1875 1946 1973 1987 1858 1862 1881 1922 1975 2072 2075 2116 2033 1919 1872 1840 1832 1778 1780 1995 1835 1814 1553 1059 861 822 821 831 873 918 318 435 993 725 514 798 722 819
1222 1235 1280 1251 1386 1191 1001 958 1013 1084 890 919 981 1161 1397 1729 1941 1883 1823 1802 1795 1828 1868 1841 1887 1813 1656 1556 1250 997 852 783 728 789 329 322 433 844 902 629 851 785 854
389 424 459 547 619 531 518 387 234 151 89 57 155 339 524 632 991 1436 1494 1679 1758 1720 1694 1836 1881 1700 1238 1059 1136 1004 803 694 629 548 303 377 672 931 1101 816 966 921 954
86 28 57 96 137 182 124 30 0 0 0 0 0 0 5 105 252 353 713 1201 1425 1599 1637 1613 1595 1618 1196 953 944 998 788 641 570 320 276 385 649 1016 1258 1111 1134 1059 1027
0 0 0 28 32 2 0 0 0 0 0 0 0 0 0 0 0 148 692 891 844 799 1052 1353 1430 1362 1186 1035 953 846 771 686 563 348 302 370 529 1184 1267 1168 1246 1247 1051
0 0 0 0 0 0 0 0 0 0 0 0 0 0 0 0 0 0 0 0 1 54 190 471 549 748 959 1024 972 852 718 608 570 375 282 270 455 1316 1483 1278 1341 1219 1082
0 0 0 0 0 0 0 0 0 0 0 0 0 0 0 0 0 0 0 0 0 0 0 0 0 23 428 517 553 702 729 717 575 350 357 350 592 1190 1696 1573 1232 1147 1072
0 0 0 0 0 0 0 0 0 0 0 0 0 0 0 0 0 0 0 0 0 0 0 0 0 0 0 0 45 252 364 449 424 368 326 307 693 1019 1713 1921 1373 1124 1174
0 0 0 0 0 0 0 0 0 0 0 0 0 0 0 0 0 0 0 0 0 0 0 0 0 0 0 0 0 0 0 90 147 287 352 372 698 1114 1515 1874 1739 1383 1248
0 0 0 0 0 0 0 0 0 0 0 0 0 0 0 0 0 0 0 0 0 0 0 0 0 0 0 0 0 0 0 0 0 46 401 611 857 1231 1670 1836 1656 1475 1346
0 0 0 0 0 0 0 0 0 0 0 0 0 0 0 0 0 0 0 0 0 0 0 0 0 0 0 0 0 0 0 0 0 0 33 276 457 1008 1586 1848 1639 1396 1356
0 0 0 0 0 0 0 0 0 0 0 0 0 0 0 0 0 0 0 0 0 0 0 0 0 0 0 0 0 0 0 0 0 0 0 0 0 30 846 1398 1909 1716 1342
0 0 0 0 0 0 0 0 0 0 0 0 0 0 0 0 0 0 0 0 0 0 0 0 0 0 0 0 0 0 0 0 0 0 0 0 0 0 0 692 1519 1865 1427
0 0 0 0 0 0 0 0 0 0 0 0 0 0 0 0 0 0 0 0 0 0 0 0 0 0 0 0 0 0 0 0 0 0 0 0 0 0 0 1 462 1105 1602
0 0 0 0 0 0 0 0 0 0 0 0 0 0 0 0 0 0 0 0 0 0 0 0 0 0 0 0 0 0 0 0 0 0 0 0 0 0 0 0 2 293 666
0 0 0 0 0 0 0 0 0 0 0 0 0 0 0 0 0 0 0 0 0 0 0 0 0 0 0 0 0 0 0 0 0 0 0 0 0 0 0 0 0 1 5
0 0 0 0 0 0 0 0 0 0 0 0 0 0 0 0 0 0 0 0 0 0 0 0 0 0 0 0 0 0 0 0 0 0 0 0 0 0 0 0 0 0 0
0 0 0 0 0 0 0 0 0 0 0 0 0 0 0 0 0 0 0 0 0 0 0 0 0 0 0 0 0 0 0 0 0 0 0 0 0 0 0 0 0 0 0
0 0 0 0 0 0 0 0 0 0 0 0 0 0 0 0 0 0 0 0 0 0 0 0 0 0 0 0 0 0 0 0 0 0 0 0 0 0 0 0 0 0 0
0 0 0 0 0 0 0 0 0 0 0 0 0 0 0 0 0 0 0 0 0 0 0 0 0 0 0 0 0 0 0 0 0 0 0 0 0 0 0 0 0 0 0
0 0 0 0 0 0 0 0 0 0 0 0 0 0 0 0 0 0 0 0 0 0 0 0 0 0 0 0 0 0 2 0 0 0 0 0 0 0 0 0 0 0 0
0 0 0 0 0 0 0 0 0 0 0 0 0 0 0 0 0 0 0 0 0 0 0 0 0 0 0 2 3 5 7 12 12 6 0 0 0 0 0 0 0 0 0
0 0 0 0 0 0 0 0 0 0 0 0 0 0 0 0 0 0 0 0 0 0 0 0 0 0 4 7 11 9 7 10 5 13 9 4 0 0 0 0 0 0 0
0 0 0 0 0 0 0 0 0 0 0 0 0 0 0 0 0 0 0 0 0 0 0 0 0 0 2 5 6 9 12 15 16 16 11 9 10 0 0 0 0 0 0